sat.trackr.live / text

‹ back to catalog

IRNSS-1G

NORAD 41469 · 2016-027A

PAYLOAD ACTIVE UNKNOWN

§ Identity

Operator
Country
IND
Launch date
2016-04-28
Launch site
SRILR
Launch vehicle
Mass (kg)
RCS (m²)
8.56

Purposes: comms, nav

External: N2YO · Heavens-Above · Gunter

§ Orbital elements

Epoch: 2026-05-24T19:48:07.281792Z

Period
1,436.01 min
Inclination
5.1402°
Eccentricity
0.0007325
Mean motion
1.00277831 rev/d
Perigee alt
35,754.0 km
Apogee alt
35,815.8 km
Semi-major
42,163.0 km
B*
0.0000e+0
RAAN
98.0142°
Arg perigee
348.5460°
Mean anomaly
222.3476°
Rev number
3,694

§ Raw data

IRNSS-1G1 41469U 16027A   26144.82508428 -.00000335  00000+0  00000+0 0  99942 41469   5.1402  98.0142 0007325 348.5460 222.3476  1.00277831 36946

JSON: /api/v1/satellites/41469 · /tle

For live sub-satellite position, see the globe view (requires WebGL).

§ Visibility from observer

Set your observer location to see the next 7 days of passes ≥ 10°. The values pass through the URL so the page stays shareable.

No JS? Fill the form by hand. The geolocation button needs JavaScript.